This demonstration page uses our WeatherBlox Daily Observations layout. Learn more.

Left ArrowRight Arrow

Hourly Observations for April 11, 2021

Temp ( °F °C ) Dew Point ( °F °C ) Humidity (%) Winds ( mph kmh ) Pressure ( in mb ) Visibility ( mi km ) Precip ( " mm )
12:15 am 00:15 Clear 42 5.5 24 -4.7 48 48 S 5 7 29.71 1006 10 16.0934 0 0
12:35 am 00:35 Clear 40 4.5 25 -4 54 54 S 3 6 29.71 1006 10 16.0934 0 0
12:55 am 00:55 Clear 41 5.2 24 -4.3 51 51 SSE 3 6 29.71 1006 10 16.0934 0 0
1:15 am 01:15 Clear 40 4.7 25 -4 54 54 SSW 7 11 29.7 1006 10 16.0934 0 0
1:35 am 01:35 Clear 43 6.1 25 -3.7 50 50 S 6 9 29.69 1005 10 16.0934 0 0
1:55 am 01:55 Clear 43 6.3 24 -4.2 47 47 SSW 9 15 29.68 1005 10 16.0934 0 0
2:15 am 02:15 Clear 44 6.6 24 -4.4 46 46 S 8 13 29.66 1004 10 16.0934 0 0
2:35 am 02:35 Clear 43 6.3 24 -4.5 46 46 SSW 7 11 29.67 1005 10 16.0934 0 0
2:55 am 02:55 Clear 43 6.3 24 -4.4 47 47 S 8 13 29.66 1004 10 16.0934 0 0
3:15 am 03:15 Clear 39 3.9 26 -3.3 60 60 S 5 7 29.67 1005 10 16.0934 0 0
3:35 am 03:35 Clear 43 6.1 25 -4.1 48 48 S 9 15 29.64 1004 10 16.0934 0 0
3:55 am 03:55 Clear 43 6.3 24 -4.2 47 47 S 9 15 29.63 1003 10 16.0934 0 0
4:15 am 04:15 Clear 44 6.6 24 -4.2 46 46 S 10 17 29.62 1003 10 16.0934 0 0
4:35 am 04:35 Clear 42 5.6 26 -3.6 52 52 S 7 11 29.63 1003 10 16.0934 0 0
4:55 am 04:55 Clear 39 3.8 26 -3.2 61 61 S 5 7 29.64 1004 10 16.0934 0 0
5:15 am 05:15 Clear 40 4.7 26 -3.2 57 57 S 10 17 29.62 1003 10 16.0934 0 0
5:35 am 05:35 Clear 43 6 26 -3.5 51 51 S 12 19 29.59 1002 10 16.0934 0 0
5:55 am 05:55 Clear 41 5.2 26 -3.3 55 55 S 10 17 29.6 1002 10 16.0934 0 0
6:15 am 06:15 Clear 40 4.5 27 -2.9 59 59 SSW 7 11 29.6 1002 10 16.0934 0 0
6:35 am 06:35 Clear 40 4.7 27 -2.6 60 60 S 6 9 29.6 1002 10 16.0934 0 0
6:55 am 06:55 Clear 39 4.1 28 -2.5 63 63 SW 6 9 29.61 1003 10 16.0934 0 0
7:15 am 07:15 Sunny 40 4.6 27 -2.6 60 60 SW 7 11 29.6 1002 10 16.0934 0 0
7:35 am 07:35 Sunny 41 4.8 27 -3 57 57 W 7 11 29.61 1003 10 16.0934 0 0
7:55 am 07:55 Sunny 44 6.5 27 -2.8 52 52 W 14 22 29.61 1003 10 16.0934 0 0
8:15 am 08:15 Sunny 45 7 27 -3 49 49 WNW 13 20 29.62 1003 10 16.0934 0 0
8:35 am 08:35 Sunny 48 8.7 29 -1.5 49 49 NW 15 24 29.61 1003 10 16.0934 0 0
8:55 am 08:55 Sunny 50 9.8 29 -1.5 46 46 NW 23 37 29.6 1003 10 16.0934 0 0
9:15 am 09:15 Sunny 50 10 31 -0.8 47 47 NW 21 33 29.61 1003 10 16.0934 0 0
9:35 am 09:35 Sunny 50 10.2 31 -0.3 48 48 NW 22 35 29.63 1003 10 16.0934 0 0
9:55 am 09:55 Sunny 53 11.4 32 0.1 46 46 NNW 23 37 29.63 1003 10 16.0934 0 0
10:15 am 10:15 Sunny 54 12.1 33 0.5 45 45 NW 20 31 29.63 1004 10 16.0934 0 0
10:35 am 10:35 Sunny 53 11.9 32 0.2 45 45 NNW 23 37 29.65 1004 10 16.0934 0 0
10:55 am 10:55 Sunny 54 12.3 33 0.5 45 45 NNW 22 35 29.65 1004 10 16.0934 0 0
11:15 am 11:15 Sunny 55 12.7 33 0.8 44 44 NW 22 35 29.65 1004 10 16.0934 0 0
11:35 am 11:35 Sunny 56 13.3 34 1 43 43 NNW 25 41 29.65 1004 10 16.0934 0 0
11:55 am 11:55 Sunny 58 14.2 34 0.9 41 41 NNW 26 43 29.65 1004 10 16.0934 0 0
12:15 pm 12:15 Sunny 58 14.5 34 0.9 40 40 NNW 24 39 29.66 1005 10 16.0934 0 0
12:35 pm 12:35 Sunny 58 14.5 33 0.3 38 38 NNW 23 37 29.67 1005 10 16.0934 0 0
12:55 pm 12:55 Sunny 59 14.8 33 0.4 38 38 NW 25 41 29.68 1005 10 16.0934 0 0
1:15 pm 13:15 Sunny 59 15 32 0.2 37 37 NW 26 43 29.68 1005 10 16.0934 0 0
1:35 pm 13:35 Sunny 59 15.2 33 0.5 37 37 NNW 24 39 29.68 1005 10 16.0934 0 0
1:55 pm 13:55 Sunny 60 15.6 32 0.2 35 35 NNW 28 44 29.67 1005 10 16.0934 0 0
2:15 pm 14:15 Sunny 61 15.9 33 0.6 36 36 NNW 28 44 29.67 1005 10 16.0934 0 0
2:35 pm 14:35 Sunny 61 16.1 32 0.2 34 34 N 29 46 29.66 1004 10 16.0934 0 0
2:55 pm 14:55 Sunny 60 15.6 32 0 35 35 N 30 48 29.65 1004 10 16.0934 0 0
3:15 pm 15:15 Sunny 60 15.6 32 0.1 35 35 NNW 25 41 29.68 1005 10 16.0934 0 0
3:35 pm 15:35 Sunny 60 15.5 32 -0.2 34 34 NNW 28 44 29.69 1005 10 16.0934 0 0
3:55 pm 15:55 Sunny 59 15.2 32 0 36 36 N 28 44 29.7 1006 10 16.0934 0 0
4:15 pm 16:15 Sunny 59 15.2 32 0 36 36 NNW 25 41 29.7 1006 10 16.0934 0 0
4:35 pm 16:35 Sunny 60 15.5 31 -0.3 34 34 N 28 44 29.71 1006 10 16.0934 0 0
4:55 pm 16:55 Sunny 60 15.3 30 -0.9 33 33 NNW 25 41 29.72 1006 10 16.0934 0 0
5:15 pm 17:15 Sunny 59 15.1 30 -1.3 33 33 N 22 35 29.73 1007 10 16.0934 0 0
5:35 pm 17:35 Sunny 59 15 29 -1.6 32 32 N 23 37 29.74 1007 10 16.0934 0 0
5:55 pm 17:55 Sunny 59 15 28 -2 31 31 N 20 31 29.74 1007 10 16.0934 0 0
6:15 pm 18:15 Sunny 59 15 27 -2.6 30 30 N 18 30 29.75 1007 10 16.0934 0 0
6:35 pm 18:35 Sunny 59 14.9 27 -2.7 30 30 N 17 28 29.75 1007 10 16.0934 0 0
6:55 pm 18:55 Sunny 58 14.6 25 -3.7 28 28 NNW 21 33 29.77 1008 10 16.0934 0 0
7:15 pm 19:15 Sunny 58 14.3 24 -4.3 28 28 N 18 30 29.79 1009 10 16.0934 0 0
7:35 pm 19:35 Sunny 56 13.6 23 -4.8 28 28 N 17 28 29.79 1009 10 16.0934 0 0
7:55 pm 19:55 Sunny 55 12.7 24 -4.7 30 30 N 14 22 29.81 1009 10 16.0934 0 0
8:15 pm 20:15 Clear 53 11.7 24 -4.7 32 32 N 12 19 29.82 1010 10 16.0934 0 0
8:35 pm 20:35 Clear 51 10.8 23 -4.8 33 33 N 13 20 29.84 1010 10 16.0934 0 0
8:55 pm 20:55 Clear 50 10.2 23 -4.8 35 35 N 13 20 29.86 1011 10 16.0934 0 0
9:15 pm 21:15 Clear 50 10 23 -4.8 35 35 N 21 33 29.87 1012 10 16.0934 0 0
9:35 pm 21:35 Clear 48 9 24 -4.5 39 39 N 13 20 29.89 1012 10 16.0934 0 0
9:55 pm 21:55 Clear 47 8.6 25 -4.1 41 41 N 13 20 29.92 1013 10 16.0934 0 0
10:15 pm 22:15 Clear 46 7.8 25 -4.1 43 43 N 10 17 29.93 1014 10 16.0934 0 0
10:35 pm 22:35 Clear 47 8.1 23 -5.1 39 39 NNW 15 24 29.95 1014 10 16.0934 0 0
10:55 pm 22:55 Clear 46 7.6 22 -5.3 40 40 NNW 13 20 29.97 1015 10 16.0934 0 0
11:15 pm 23:15 Clear 46 7.5 24 -4.7 42 42 N 16 26 29.99 1015 10 16.0934 0 0
11:35 pm 23:35 Clear 45 7.1 25 -3.9 46 46 N 16 26 30 1016 10 16.0934 0 0
11:55 pm 23:55 Clear 44 6.6 26 -3.2 50 50 N 13 20 30.02 1017 10 16.0934 0 0

Powered by AerisWeather